Lid_Strength_Index
1 2 3 4 10 9 12 11 8 8 7 5 5 7 7 6 8 10 2 0 0 0 -1 -1 -1 -1 -1 -1 -1 -1 -1 -1 -1 -1 -1 -1 -1 -1 -1 -1 -1 -1 -1 -1 -1 -1 -1 -1 -1
3 2 5 7 12 13 12 10 9 7 8 7 6 5 6 7 4 3 3 0 -0 0 -1 -1 -1 -1 -1 -1 -1 -1 -1 -1 -1 -1 -1 -1 -1 -1 -1 -1 -1 -1 -1 -1 -1 -1 -1 -1 -1
3 4 8 9 12 13 12 11 8 7 7 8 7 4 5 6 3 3 1 0 -0 0 -0 -1 -1 -1 -1 -1 -1 -1 -1 -1 -1 -1 -1 -1 -1 -1 -1 -1 -1 -1 -1 -1 -1 -1 -1 -1 -1
4 4 7 11 12 12 12 9 9 8 7 7 7 8 6 3 3 2 0 0 0 0 -0 -1 -1 -1 -1 -1 -1 -1 -1 -1 -1 -1 -1 -1 -1 -1 -1 -1 -1 -1 -1 -1 -1 -1 -1 -1 -1
4 6 10 11 12 11 10 9 8 8 8 7 6 7 7 5 1 1 1 0 1 0 -0 -1 -1 -1 -1 -1 -1 -1 -1 -1 -1 -1 -1 -1 -1 -1 -1 -1 -1 -1 -1 -1 -1 -1 -1 -1 -2
7 7 11 13 12 11 9 8 8 8 8 6 7 7 6 2 2 1 1 1 -0 0 -0 -1 -1 -1 -1 -1 -1 -1 -1 -1 -1 -1 -1 -1 -1 -1 -1 -1 -1 -1 -1 -1 -1 -1 -1 -2 -2
8 9 12 12 11 10 8 7 8 8 7 7 6 7 4 5 5 1 1 0 0 -0 -0 -0 -1 -1 -1 -1 -1 -1 -1 -1 -1 -1 -1 -1 -1 -1 -1 -1 -1 -1 -1 -1 -1 -1 -2 -2 -2
7 8 11 11 12 11 8 8 7 8 8 5 5 7 6 6 1 1 1 1 1 0 0 -0 -0 -1 -1 -1 -1 -1 -1 -1 -1 -1 -1 -1 -1 -1 -1 -1 -1 -1 -1 -1 -1 -2 -2 -2 -2
8 10 12 12 11 11 8 9 8 7 8 7 6 5 5 1 1 2 2 2 1 1 1 -0 -0 -0 -1 -1 -1 -1 -1 -1 -1 -1 -1 -1 -1 -2 -1 -1 -1 -1 -1 -1 -2 -1 -1 -2 -1
9 11 12 10 9 10 9 9 8 9 9 8 7 5 4 2 2 4 4 4 3 2 1 0 0 -0 -0 -1 -1 -1 -1 -1 -1 -1 -1 -1 -1 -1 -1 -1 -1 -1 -1 -1 -0 -1 -1 -1 -2
10 11 10 9 9 8 9 8 7 8 9 8 7 5 4 3 2 4 4 3 3 2 1 1 0 -0 -0 -0 -0 -1 -1 -1 -1 -1 -1 -2 -1 -1 -1 -1 -2 -2 -1 -2 -1 -1 -2 -1 -1
10 9 9 8 7 8 8 7 8 8 7 6 6 4 4 4 3 3 3 3 3 2 2 1 0 0 -0 -0 -0 -0 -0 -1 -1 -1 -1 -1 -1 -1 -1 -1 -1 -2 -2 -1 -1 -1 -1 -1 -1
9 9 8 7 7 7 7 7 7 7 6 5 5 5 4 3 2 2 2 2 2 2 2 1 0 0 -0 -0 -0 -0 -0 -0 -1 -1 -1 -1 -1 -1 -1 -1 -1 -1 -1 -1 -1 -1 -1 -1 -1
8 8 8 7 7 7 7 6 6 6 4 4 4 4 3 3 2 2 2 2 2 2 1 1 1 0 -0 -0 -0 -0 -1 -1 -1 -1 -1 -1 -1 -1 -1 -1 -1 -1 -1 -1 -1 -1 -1 -1 -1
7 9 8 8 7 7 5 8 8 5 4 4 4 4 3 3 2 3 3 2 1 1 1 1 1 -0 -0 -0 -0 -0 -0 -1 -0 -1 -1 -1 -2 -1 -1 -0 -1 -1 -1 -1 -1 -1 -1 -0 -0
9 9 11 7 7 6 6 10 7 5 5 5 4 4 4 3 2 2 2 2 1 1 1 1 0 0 0 0 -0 -0 -0 -1 -1 -1 -1 -1 -2 -1 -1 -0 -0 -1 -1 -1 -0 -0 0 -0 0
10 12 11 10 7 7 7 9 7 5 5 6 5 4 4 3 2 2 2 2 1 1 1 1 1 1 0 0 -0 -0 -0 -0 -1 -1 -1 -1 -1 -1 -1 -0 -1 -1 -0 -0 -0 -0 1 1 1
12 12 10 11 8 7 8 9 6 6 5 5 5 5 4 4 3 2 2 1 1 1 1 1 1 1 0 0 -0 -0 -0 -0 -1 -1 -1 -1 -1 -1 -1 -1 -1 -1 -0 -0 1 2 1 1 2
10 11 11 9 7 9 9 9 7 6 6 6 5 5 4 4 2 2 2 2 2 1 2 2 2 1 1 1 2 1 1 1 0 -0 -1 -1 -1 -1 -1 -0 -0 -1 -0 0 2 2 3 4 3
9 11 11 9 8 8 9 9 7 6 6 5 5 5 5 4 3 2 2 2 2 2 2 2 1 1 1 1 1 1 1 0 0 -0 -1 -1 -1 -1 -1 -1 -0 -1 1 2 3 3 2 3 2
10 12 11 12 9 8 9 10 8 6 6 6 5 5 4 4 4 3 2 2 2 2 2 2 1 1 1 0 1 1 0 0 1 0 0 -0 -1 -1 -1 -1 -0 1 1 2 3 1 1 3 2
13 9 10 11 12 14 9 16 10 8 8 7 6 5 5 4 3 3 2 3 3 3 2 2 1 1 1 1 1 2 2 2 1 1 0 -0 -1 -1 -1 0 1 2 2 3 2 1 0 1 2
11 8 10 10 12 12 11 14 11 8 9 8 6 6 5 4 4 3 3 2 2 2 2 2 2 1 1 1 1 1 1 1 1 1 1 0 -0 0 1 2 3 4 4 2 1 1 0 0 1
7 9 9 10 11 17 12 13 12 9 9 8 6 5 5 4 3 3 2 2 2 2 2 1 1 1 1 1 1 1 1 1 2 1 1 1 1 2 3 3 4 4 3 3 2 -1 -1 -0 0
9 12 15 16 16 17 11 13 11 8 7 7 7 6 5 4 4 3 3 3 2 3 2 2 2 2 1 1 1 1 1 1 1 1 1 1 2 3 4 4 5 4 3 2 1 -0 -0 -0 0
11 12 15 20 18 16 11 14 11 7 6 6 5 5 5 4 4 3 3 3 2 3 3 2 2 2 2 2 2 1 1 1 1 1 1 1 2 4 5 5 4 4 2 3 0 1 1 -0 0
11 14 10 15 14 17 13 11 8 7 7 6 6 5 5 4 4 3 3 3 3 3 3 2 2 2 2 2 1 1 1 1 1 0 1 2 3 5 5 4 4 3 2 2 0 1 0 0 1
10 8 15 15 20 20 15 13 12 10 9 7 7 6 5 4 4 3 3 3 3 2 3 2 2 2 2 1 1 1 1 1 1 1 2 3 4 5 5 5 4 2 3 1 0 0 1 2 3
11 12 13 14 15 20 19 14 8 8 8 8 6 6 5 5 4 4 3 3 3 2 2 2 2 2 2 2 1 1 1 1 2 2 3 4 4 5 5 5 4 3 2 0 0 1 2 2 3
9 11 13 17 17 16 17 15 7 7 6 7 6 5 5 4 4 3 3 3 3 3 3 3 2 2 2 2 2 1 2 1 2 3 4 4 5 5 5 5 3 3 2 0 1 2 2 3 4